Tiempo cada hora Abbevillers

Hoy, 22 Octubre, Jueves

Tiempo Temperatura Precipitaciones Viento Presión Humedad
00:00 +12°C° 0 mm 1 mps 712 mmHg 77%
01:00 +12°C° 0 mm 1 mps 712 mmHg 77%
02:00 +12°C° 0 mm 1 mps 713 mmHg 76%
03:00 +12°C° 0 mm 1 mps 713 mmHg 75%
04:00 +12°C° 0 mm 1 mps 713 mmHg 74%
05:00 +12°C° 0 mm 1 mps 713 mmHg 74%
06:00 +12°C° 0 mm 1 mps 713 mmHg 73%
07:00 +13°C° 0 mm 1 mps 713 mmHg 71%
08:00 +14°C° 0 mm 1 mps 714 mmHg 70%
09:00 +16°C° 0 mm 1 mps 714 mmHg 68%
10:00 +16°C° 0 mm 1 mps 714 mmHg 66%
11:00 +18°C° 0 mm 1 mps 714 mmHg 65%
12:00 +19°C° 0 mm 1 mps 714 mmHg 63%
13:00 +17°C° 0.4 mm 2 mps 714 mmHg 72%
14:00 +16°C° 0.4 mm 2 mps 714 mmHg 80%
15:00 +14°C° 0.4 mm 2 mps 713 mmHg 89%
16:00 +14°C° 0.3 mm 2 mps 713 mmHg 88%
17:00 +14°C° 0.3 mm 2 mps 713 mmHg 88%
18:00 +14°C° 0.3 mm 1 mps 713 mmHg 87%
19:00 +14°C° 0 mm 1 mps 713 mmHg 88%
20:00 +13°C° 0 mm 1 mps 713 mmHg 88%
21:00 +13°C° 0 mm 1 mps 713 mmHg 89%
22:00 +13°C° 0.2 mm 1 mps 713 mmHg 90%
23:00 +13°C° 0.2 mm 1 mps 713 mmHg 91%

Mañana, 23 Octubre, Viernes

Tiempo Temperatura Precipitaciones Viento Presión Humedad
00:00 +12°C° 0.2 mm 0 mps 713 mmHg 93%
01:00 +12°C° 1.6 mm 0 mps 713 mmHg 95%
02:00 +12°C° 1.6 mm 0 mps 712 mmHg 96%
03:00 +12°C° 1.6 mm 0 mps 712 mmHg 98%
04:00 +12°C° 2.3 mm 0 mps 712 mmHg 98%
05:00 +13°C° 2.3 mm 1 mps 711 mmHg 98%
06:00 +13°C° 2.3 mm 1 mps 711 mmHg 98%
07:00 +13°C° 2.8 mm 1 mps 711 mmHg 98%
08:00 +13°C° 2.8 mm 1 mps 711 mmHg 98%
09:00 +13°C° 2.8 mm 1 mps 711 mmHg 99%
10:00 +13°C° 2.2 mm 1 mps 711 mmHg 98%
11:00 +13°C° 2.2 mm 1 mps 711 mmHg 98%
12:00 +13°C° 2.2 mm 2 mps 711 mmHg 97%
13:00 +13°C° 2.4 mm 2 mps 711 mmHg 97%
14:00 +12°C° 2.4 mm 3 mps 711 mmHg 97%
15:00 +12°C° 2.4 mm 3 mps 712 mmHg 96%
16:00 +12°C° 1.4 mm 3 mps 712 mmHg 96%
17:00 +12°C° 1.4 mm 2 mps 712 mmHg 96%
18:00 +12°C° 1.4 mm 2 mps 713 mmHg 96%
19:00 +12°C° 0.1 mm 2 mps 713 mmHg 96%
20:00 +12°C° 0.1 mm 2 mps 714 mmHg 96%
21:00 +11°C° 0.1 mm 1 mps 714 mmHg 96%
22:00 +10°C° 0.1 mm 2 mps 714 mmHg 96%
23:00 +10°C° 0.1 mm 2 mps 714 mmHg 96%

Pasado mañana, 24 Octubre, Sábado

Tiempo Temperatura Precipitaciones Viento Presión Humedad
00:00 +10°C° 0.1 mm 2 mps 714 mmHg 96%
01:00 +10°C° 0 mm 2 mps 714 mmHg 96%
02:00 +10°C° 0 mm 2 mps 715 mmHg 96%
03:00 +10°C° 0 mm 2 mps 715 mmHg 96%
04:00 +10°C° 0.1 mm 2 mps 715 mmHg 96%
05:00 +10°C° 0.1 mm 2 mps 715 mmHg 96%
06:00 +10°C° 0.1 mm 2 mps 715 mmHg 96%
07:00 +10°C° 0 mm 2 mps 716 mmHg 95%
08:00 +10°C° 0 mm 2 mps 716 mmHg 93%
09:00 +12°C° 0 mm 2 mps 716 mmHg 92%
10:00 +12°C° 0.1 mm 2 mps 716 mmHg 88%
11:00 +13°C° 0.1 mm 2 mps 715 mmHg 84%
12:00 +14°C° 0.1 mm 2 mps 715 mmHg 81%
13:00 +14°C° 0 mm 1 mps 715 mmHg 81%
14:00 +14°C° 0 mm 1 mps 715 mmHg 81%
15:00 +14°C° 0 mm 1 mps 714 mmHg 82%
16:00 +12°C° 0 mm 1 mps 714 mmHg 86%
17:00 +11°C° 0 mm 1 mps 714 mmHg 90%
18:00 +8°C° 0 mm 0 mps 714 mmHg 94%
19:00 +8°C° 0 mm 0 mps 713 mmHg 94%
20:00 +8°C° 0 mm 0 mps 713 mmHg 94%
21:00 +8°C° 0 mm 1 mps 713 mmHg 94%
22:00 +8°C° 0 mm 1 mps 713 mmHg 94%
23:00 +8°C° 0 mm 1 mps 712 mmHg 94%

, 25 Octubre, Domingo

Tiempo Temperatura Precipitaciones Viento Presión Humedad
00:00 +8°C° 0 mm 1 mps 712 mmHg 94%
01:00 +8°C° 0 mm 1 mps 712 mmHg 94%
02:00 +8°C° 0 mm 1 mps 712 mmHg 94%
03:00 +8°C° 0 mm 1 mps 711 mmHg 94%
04:00 +8°C° 0 mm 1 mps 711 mmHg 94%
05:00 +8°C° 0 mm 1 mps 711 mmHg 94%
06:00 +8°C° 0 mm 1 mps 711 mmHg 93%
07:00 +10°C° 0 mm 1 mps 710 mmHg 88%
08:00 +11°C° 0 mm 1 mps 710 mmHg 83%
09:00 +13°C° 0 mm 1 mps 710 mmHg 77%
10:00 +15°C° 0 mm 1 mps 710 mmHg 70%
11:00 +16°C° 0 mm 1 mps 710 mmHg 63%
12:00 +18°C° 0 mm 1 mps 709 mmHg 56%
13:00 +18°C° 0 mm 1 mps 709 mmHg 62%
14:00 +16°C° 0 mm 1 mps 708 mmHg 67%
15:00 +16°C° 0 mm 1 mps 707 mmHg 72%
16:00 +14°C° 0 mm 1 mps 707 mmHg 77%
17:00 +12°C° 0 mm 1 mps 707 mmHg 82%
18:00 +9°C° 0 mm 2 mps 707 mmHg 87%
19:00 +11°C° 0 mm 1 mps 707 mmHg 86%
20:00 +11°C° 0 mm 1 mps 707 mmHg 85%
21:00 +11°C° 0 mm 1 mps 707 mmHg 83%
22:00 +11°C° 0 mm 1 mps 707 mmHg 85%
23:00 +10°C° 0 mm 2 mps 706 mmHg 87%

25 Octubre, Domingo

Tiempo Temperatura Precipitaciones Viento Presión Humedad
00:00 +8°C° 0 mm 1 mps 712 mmHg 94%
01:00 +8°C° 0 mm 1 mps 712 mmHg 94%
02:00 +8°C° 0 mm 1 mps 712 mmHg 94%
03:00 +8°C° 0 mm 1 mps 711 mmHg 94%
04:00 +8°C° 0 mm 1 mps 711 mmHg 94%
05:00 +8°C° 0 mm 1 mps 711 mmHg 94%
06:00 +8°C° 0 mm 1 mps 711 mmHg 93%
07:00 +10°C° 0 mm 1 mps 710 mmHg 88%
08:00 +11°C° 0 mm 1 mps 710 mmHg 83%
09:00 +13°C° 0 mm 1 mps 710 mmHg 77%
10:00 +15°C° 0 mm 1 mps 710 mmHg 70%
11:00 +16°C° 0 mm 1 mps 710 mmHg 63%
12:00 +18°C° 0 mm 1 mps 709 mmHg 56%
13:00 +18°C° 0 mm 1 mps 709 mmHg 62%
14:00 +16°C° 0 mm 1 mps 708 mmHg 67%
15:00 +16°C° 0 mm 1 mps 707 mmHg 72%
16:00 +14°C° 0 mm 1 mps 707 mmHg 77%
17:00 +12°C° 0 mm 1 mps 707 mmHg 82%
18:00 +9°C° 0 mm 2 mps 707 mmHg 87%
19:00 +11°C° 0 mm 1 mps 707 mmHg 86%
20:00 +11°C° 0 mm 1 mps 707 mmHg 85%
21:00 +11°C° 0 mm 1 mps 707 mmHg 83%
22:00 +11°C° 0 mm 1 mps 707 mmHg 85%
23:00 +10°C° 0 mm 2 mps 706 mmHg 87%

26 Octubre, Lunes

Tiempo Temperatura Precipitaciones Viento Presión Humedad
00:00 +10°C° 0 mm 2 mps 706 mmHg 88%
01:00 +9°C° 0.7 mm 3 mps 706 mmHg 91%
02:00 +8°C° 0.7 mm 3 mps 706 mmHg 93%
03:00 +7°C° 0.7 mm 3 mps 705 mmHg 95%
04:00 +7°C° 1.6 mm 3 mps 705 mmHg 95%
05:00 +5°C° 1.6 mm 3 mps 705 mmHg 96%
06:00 +5°C° 1.6 mm 3 mps 705 mmHg 96%
07:00 +6°C° 0.9 mm 2 mps 705 mmHg 95%
08:00 +6°C° 0.9 mm 2 mps 706 mmHg 95%
09:00 +6°C° 0.9 mm 2 mps 706 mmHg 95%
10:00 +6°C° 1 mm 2 mps 706 mmHg 95%
11:00 +6°C° 1 mm 2 mps 706 mmHg 94%
12:00 +6°C° 1 mm 2 mps 706 mmHg 94%
13:00 +7°C° 0.5 mm 2 mps 706 mmHg 94%
14:00 +8°C° 0.5 mm 1 mps 706 mmHg 93%
15:00 +8°C° 0.5 mm 1 mps 706 mmHg 93%
16:00 +7°C° 0.6 mm 1 mps 706 mmHg 93%
17:00 +7°C° 0.6 mm 1 mps 706 mmHg 94%
18:00 +7°C° 0.6 mm 1 mps 706 mmHg 95%
19:00 +6°C° 0.1 mm 1 mps 706 mmHg 94%
20:00 +6°C° 0.1 mm 1 mps 707 mmHg 94%
21:00 +6°C° 0.1 mm 1 mps 707 mmHg 93%
22:00 +6°C° 0.1 mm 1 mps 707 mmHg 94%
23:00 +6°C° 0.1 mm 1 mps 707 mmHg 94%

27 Octubre, Martes

Tiempo Temperatura Precipitaciones Viento Presión Humedad
00:00 +6°C° 0.1 mm 1 mps 707 mmHg 95%
01:00 +6°C° 0.1 mm 1 mps 707 mmHg 95%
02:00 +6°C° 0.1 mm 1 mps 707 mmHg 96%
03:00 +6°C° 0.1 mm 1 mps 707 mmHg 97%
04:00 +6°C° 0 mm 1 mps 708 mmHg 97%
05:00 +6°C° 0 mm 1 mps 708 mmHg 97%
06:00 +6°C° 0 mm 1 mps 708 mmHg 97%
07:00 +6°C° 0 mm 1 mps 709 mmHg 96%
08:00 +6°C° 0 mm 1 mps 709 mmHg 95%
09:00 +7°C° 0 mm 1 mps 709 mmHg 93%
10:00 +6°C° 0 mm 2 mps 709 mmHg 91%
11:00 +7°C° 0 mm 2 mps 710 mmHg 88%
12:00 +7°C° 0 mm 2 mps 710 mmHg 86%
13:00 +7°C° 0 mm 2 mps 710 mmHg 85%
14:00 +7°C° 0 mm 2 mps 710 mmHg 85%
15:00 +7°C° 0 mm 2 mps 710 mmHg 85%
16:00 +6°C° 0 mm 2 mps 711 mmHg 87%
17:00 +7°C° 0 mm 1 mps 711 mmHg 90%
18:00 +6°C° 0 mm 1 mps 711 mmHg 93%
19:00 +5°C° 0 mm 1 mps 711 mmHg 93%
20:00 +5°C° 0 mm 1 mps 711 mmHg 93%
21:00 +4°C° 0 mm 1 mps 712 mmHg 94%
22:00 +4°C° 0 mm 1 mps 712 mmHg 94%
23:00 +4°C° 0 mm 1 mps 712 mmHg 93%
Mostrar más

Necesitamos Su Consentimiento

Meteoprog y nuestros Proveedores de Servicios pueden almacenar y acceder a sus datos personales como cookies, identificadores de dispositivo u otras tecnologías similares de su dispositivo y procesar dichos datos para personalizar contenido y anuncios, además de ofrecer funciones de redes sociales y analizar el tráfico.

  • Almacenar y/o acceder a información en su dispositivo

    Se puede almacenar o acceder a cookies, identificadores de dispositivo u otra información de su dispositivo para los fines anteriormente indicados.

  • Anuncios y contenido personalizados, medición de anuncios y contenido, percepciones del público, y desarrollo de productos

    Los anuncios y el contenido pueden personalizarse en base a su perfil. Se pueden añadir más datos para personalizar mejor los anuncios y contenidos. Se puede medir el rendimiento de los anuncios y contenidos. Se puede obtener la percepción sobre el público que ha visto los anuncios y contenidos. Dichos datos pueden usarse para desarrollar o mejorar la experiencia del usuario, sistemas y software.

Al hacer clic en ‘Estoy De Acuerdo’ usted permitirá el uso de las cookies, identificadores de dispositivo, balizas web u otras tecnologías similares indicadas. Su configuración puede cambiarse desde el navegador de su dispositivo.

Para ciertos fines, los intereses legítimos pueden ser considerados por encima del consentimiento. Puede leer más sobre ello en nuestra Política de Privacidad y Cookies.